Content
SEND FEEDBACK

Daily
Averages
Monthly
Summary
United States of America

BROOKLINE, MASSACHUSETTS


Home > North America > United States > Massachusetts
Elevation: 118 feet     Latitude: 42 24N     Longitude: 071 06W

WEATHER
 
SELECT A DAY
Number of Records: 202,798;   Date Range: 1/1/95 - 8/14/14
 
SHARE

PRINT THIS DATA

[ ← Previous Day ]
WEATHER ALMANAC - JUNE 14, 2013
[ Next Day → ]
[ °C ]   °F
Weather ElementAverageHighLow
Temperature60.6 °F73.9 °F (5:54 pm)53.1 °F (1:54 am)
Dewpoint51.2 °F54 °F (8:54 pm)46.9 °F (12:54 pm)
Humidity74 %94 % (12:50 am)43 % (5:54 pm)
Barometer29.70 in29.75 in (11:54 pm)29.64 in (2:17 am)
Wind Speed12.6 mph20.7 mph (12:50 am)
Wind Gust28.8 mph (12:50 am)
Weather ElementAverage
Visibility8.1 mi
Wind DirectionESE (121.1 °)

Weather ElementTotal
Precipitation1.52 in
Heating Degree Days1.5 (Base 65)
Growing Degree Days13.5 (Base 50)
Averaged from 28 records on June 14, 2013
WEATHER CONDITIONS BREAKOUT
WIND DIRECTION BREAKOUT
WEATHER BY HOUR - JUNE 14, 2013
[ °C ]   °F
Local TimeTemperatureDewpointHumidityBarometerVisibilityWind DirectionWind SpeedGust SpeedPrecipitationEventsConditions
12:50 AM53.6 °F51.8 °F94 %29.67 in6.0 miNE (50°)20.7 mph28.8 mph0.16 inRainRain
12:54 AM54.0 °F51.1 °F90 %29.67 in6.0 miENE (60°)19.6 mph28.8 mph0.17 inRainRain
1:54 AM53.1 °F50.0 °F89 %29.65 in5.0 miNE (40°)19.6 mph0.16 inRainRain
2:17 AM53.6 °F51.8 °F94 %29.64 in5.0 miNE (40°)17.3 mph0.06 inRainRain
2:24 AM53.6 °F51.8 °F94 %29.64 in5.0 miNE (40°)19.6 mph25.3 mph0.08 inRainRain
2:54 AM53.1 °F51.1 °F93 %29.64 in6.0 miNE (40°)19.6 mph27.6 mph0.15 inRainRain
3:54 AM54.0 °F52.0 °F93 %29.65 in5.0 miNE (50°)18.4 mph23.0 mph0.15 inRainRain
4:54 AM54.0 °F52.0 °F93 %29.66 in8.0 miNNE (30°)16.1 mph0.07 inRainLight Rain
5:54 AM54.0 °F52.0 °F93 %29.68 in4.0 miNNE (30°)13.8 mph0.14 inRainRain
6:09 AM53.6 °F51.8 °F94 %29.68 in6.0 miNNE (30°)13.8 mph0.02 inRainLight Rain
6:54 AM54.0 °F52.0 °F93 %29.69 in6.0 miNE (40°)12.7 mph20.7 mph0.09 inRainLight Rain
7:54 AM54.0 °F50.0 °F86 %29.72 in7.0 miNNE (30°)12.7 mph0.14 inRainRain
8:54 AM54.0 °F51.1 °F90 %29.72 in9.0 miNE (40°)11.5 mph0.11 inRainLight Rain
9:54 AM55.9 °F51.1 °F84 %29.71 in10.0 miNNE (30°)11.5 mph0.02 inRainLight Rain
10:54 AM60.1 °F52.0 °F75 %29.71 in10.0 miNNE (20°)12.7 mph0.00 inMostly Cloudy
11:54 AM61.0 °F50.0 °F67 %29.74 in10.0 miNNE (30°)12.7 mphOvercast
12:54 PM63.0 °F46.9 °F56 %29.73 in10.0 miNE (40°)13.8 mphMostly Cloudy
1:54 PM64.9 °F50.0 °F58 %29.73 in10.0 miNE (40°)6.9 mphMostly Cloudy
2:54 PM64.9 °F51.1 °F61 %29.72 in10.0 miSouth (170°)5.8 mphMostly Cloudy
3:54 PM66.0 °F52.0 °F60 %29.71 in10.0 miSE (140°)8.1 mphMostly Cloudy
4:54 PM71.1 °F52.0 °F51 %29.70 in10.0 miNNW (340°)6.9 mphMostly Cloudy
5:54 PM73.9 °F50.0 °F43 %29.70 in10.0 miNNW (340°)8.1 mphScattered Clouds
6:54 PM73.9 °F50.0 °F43 %29.70 in10.0 miWNW (300°)6.9 mphScattered Clouds
7:54 PM72.0 °F48.9 °F44 %29.71 in10.0 miWest (280°)8.1 mphScattered Clouds
8:54 PM68.0 °F54.0 °F61 %29.72 in10.0 miWest (260°)4.6 mphScattered Clouds
9:54 PM69.1 °F51.1 °F53 %29.74 in9.0 miWest (280°)8.1 mphScattered Clouds
10:54 PM66.9 °F53.1 °F61 %29.74 in10.0 miWest (280°)10.4 mphScattered Clouds
11:54 PM66.9 °F52.0 °F59 %29.75 in10.0 miNW (320°)13.8 mphScattered Clouds
Hourly data recorded from KBOS, located miles away from Brookline, Massachusetts







STORIES FROM OUR PARTNERS